GW4054 Weather Reports


time (UTC)temp
C
wind
direction
speed
KPH
gust
KPH
rain 1hr
cm
rain 24hr
cm
rain mn
cm
humidity
%
barometer
mb
20260503033416 9 0 0.0 1.6 0.00 0.00 0.00 57 1010.6
20260503032006 10 144 0.0 1.6 0.00 0.00 0.00 55 1010.5
20260503031837 10 144 0.0 1.6 0.00 0.00 0.00 55 1010.5
20260503030428 10 0 0.0 1.6 0.00 0.00 0.00 54 1010.7
20260503024909 10 0 0.0 3.2 0.00 0.00 0.00 53 1010.4
20260503023444 10 0 0.0 4.8 0.00 0.00 0.00 50 1010.6
20260503023332 10 0 0.0 4.8 0.00 0.00 0.00 50 1010.6
20260503021836 11 0 0.0 4.8 0.00 0.00 0.00 48 1010.6
20260503020350 11 0 0.0 4.8 0.00 0.00 0.00 46 1011.0
20260503014926 11 144 1.6 4.8 0.00 0.00 0.00 44 1010.6
20260503013520 11 144 1.6 4.8 0.00 0.00 0.00 46 1010.6
20260503013406 11 144 1.6 4.8 0.00 0.00 0.00 46 1010.6
20260503011856 11 144 1.6 3.2 0.00 0.00 0.00 48 1010.4
20260503010431 11 144 0.0 3.2 0.00 0.00 0.00 47 1010.4
20260503005006 11 144 1.6 4.8 0.00 0.00 0.00 49 1010.3
20260503004828 11 144 1.6 4.8 0.00 0.00 0.00 49 1010.3
20260503003351 11 0 0.0 0.0 0.00 0.00 0.00 59 1010.1
20260503001917 11 0 0.0 0.0 0.00 0.00 0.00 56 1010.1
20260503000422 12 0 0.0 0.0 0.00 0.00 0.00 52 1010.1
20260502235011 13 0 0.0 1.6 0.00 0.00 0.00 47 1010.1
20260502234858 13 0 0.0 1.6 0.00 0.00 0.00 47 1010.1
20260502233353 13 0 0.0 1.6 0.00 0.00 0.00 47 1009.9
20260502232014 13 0 0.0 3.2 0.00 0.00 0.00 45 1009.8
20260502231828 13 0 0.0 3.2 0.00 0.00 0.00 45 1009.8
20260502230511 14 144 0.0 3.2 0.00 0.00 0.00 43 1009.7
20260502230357 14 144 0.0 3.2 0.00 0.00 0.00 43 1009.7
20260502225014 14 144 0.0 6.4 0.00 0.00 0.00 41 1009.5
20260502224852 14 144 0.0 6.4 0.00 0.00 0.00 41 1009.5
20260502223457 14 144 1.6 4.8 0.00 0.00 0.00 43 1009.6
20260502223354 14 144 1.6 4.8 0.00 0.00 0.00 43 1009.6
20260502222002 15 144 1.6 4.8 0.00 0.00 0.00 45 1009.7
20260502221856 15 144 1.6 4.8 0.00 0.00 0.00 45 1009.7
20260502220533 15 144 1.6 3.2 0.00 0.00 0.00 47 1009.8
20260502220338 15 144 1.6 3.2 0.00 0.00 0.00 47 1009.8
20260502214951 15 144 1.6 6.4 0.00 0.00 0.00 47 1009.6
20260502214832 15 144 1.6 6.4 0.00 0.00 0.00 47 1009.6
20260502213350 14 144 1.6 6.4 0.00 0.00 0.00 48 1009.6
20260502211944 14 144 1.6 8.0 0.00 0.00 0.00 50 1009.4
20260502210422 15 144 3.2 11.3 0.00 0.00 0.00 49 1009.3
20260502204942 15 144 1.6 9.7 0.00 0.00 0.00 45 1009.4
20260502204836 15 144 1.6 9.7 0.00 0.00 0.00 45 1009.4
20260502203531 15 144 3.2 9.7 0.00 0.00 0.00 46 1009.3
20260502203336 15 144 3.2 9.7 0.00 0.00 0.00 46 1009.3
20260502201929 15 144 1.6 6.4 0.00 0.00 0.00 49 1009.6
20260502200413 14 144 3.2 8.0 0.00 0.00 0.00 51 1009.9
20260502195012 14 144 1.6 6.4 0.00 0.00 0.00 55 1010.1
20260502194858 14 144 1.6 6.4 0.00 0.00 0.00 55 1010.1
20260502193444 14 144 3.2 6.4 0.00 0.00 0.00 52 1010.3
20260502193324 14 144 3.2 6.4 0.00 0.00 0.00 52 1010.3
20260502191850 14 144 3.2 4.8 0.00 0.00 0.00 55 1010.6
20260502190514 13 144 1.6 4.8 0.00 0.00 0.00 56 1010.8
20260502190346 13 144 1.6 4.8 0.00 0.00 0.00 56 1010.8
20260502184931 13 144 1.6 8.0 0.00 0.00 0.00 59 1010.8
20260502183510 13 144 4.8 8.0 0.00 0.00 0.00 59 1010.9
20260502183336 13 144 4.8 8.0 0.00 0.00 0.00 59 1010.9
20260502181928 13 144 1.6 8.0 0.00 0.00 0.00 59 1011.0
20260502180354 13 144 1.6 4.8 0.00 0.00 0.00 62 1011.0
20260502170445 13 144 3.2 8.0 0.00 0.00 0.00 65 1011.3
20260502163439 13 144 3.2 6.4 0.00 0.00 0.00 69 1011.5
20260502161956 12 144 0.0 4.8 0.00 0.00 0.00 69 1011.4
20260502161857 12 144 0.0 4.8 0.00 0.00 0.00 69 1011.4
20260502160421 12 144 1.6 8.0 0.00 0.00 0.00 68 1011.6
20260502152023 12 144 0.0 4.8 0.00 0.00 0.00 71 1011.7
20260502151845 12 144 0.0 4.8 0.00 0.00 0.00 71 1011.7
20260502150511 11 144 0.0 4.8 0.00 0.00 0.00 72 1011.9
20260502130509 11 144 0.0 3.2 0.00 0.00 0.00 77 1012.0
20260502130328 11 144 0.0 3.2 0.00 0.00 0.00 77 1012.0
20260502123520 10 144 0.0 6.4 0.00 0.00 0.00 81 1011.9
20260502123333 10 144 0.0 6.4 0.00 0.00 0.00 81 1011.9
20260502121935 10 144 0.0 3.2 0.00 0.00 0.00 82 1011.8
20260502120429 10 144 0.0 1.6 0.00 0.00 0.00 83 1011.9
20260502120327 10 144 0.0 1.6 0.00 0.00 0.00 83 1011.9
20260502114914 9 144 0.0 1.6 0.00 0.00 0.00 83 1012.1
20260502113402 9 144 1.6 3.2 0.00 0.00 0.00 84 1012.0
20260502111848 9 0 0.0 3.2 0.00 0.00 0.00 84 1011.7
20260502110513 9 144 1.6 4.8 0.00 0.00 0.00 84 1011.1
20260502110355 9 144 1.6 4.8 0.00 0.00 0.00 84 1011.1
20260502104932 9 144 1.6 1.6 0.00 0.00 0.00 84 1011.3
20260502103435 9 0 0.0 1.6 0.00 0.00 0.00 84 1011.6
20260502101944 9 0 0.0 3.2 0.00 0.00 0.00 84 1011.5
20260502100458 9 0 0.0 0.0 0.00 0.00 0.00 83 1011.7
20260502100325 9 0 0.0 0.0 0.00 0.00 0.00 83 1011.7
20260502090350 9 0 0.0 1.6 0.00 0.00 0.00 81 1011.3
20260502070520 9 0 0.0 3.2 0.00 0.00 0.00 79 1011.3
20260502070414 9 0 0.0 3.2 0.00 0.00 0.00 79 1011.3
20260502064955 8 0 0.0 3.2 0.00 0.00 0.00 78 1011.4
20260502064856 8 0 0.0 3.2 0.00 0.00 0.00 78 1011.4
20260502063433 8 144 0.0 1.6 0.00 0.00 0.00 77 1011.6
20260502061933 8 144 0.0 1.6 0.00 0.00 0.00 77 1011.6
20260502061823 8 144 0.0 1.6 0.00 0.00 0.00 77 1011.6
20260502060424 9 144 0.0 1.6 0.00 0.00 0.00 76 1011.7
20260502055018 10 0 0.0 1.6 0.00 0.00 0.00 74 1011.6
20260502054915 10 0 0.0 1.6 0.00 0.00 0.00 74 1011.6
20260502053410 10 0 0.0 1.6 0.00 0.00 0.00 74 1011.6
20260502051921 10 144 0.0 1.6 0.00 0.00 0.00 73 1011.5
20260502050403 10 0 0.0 1.6 0.00 0.00 0.00 74 1011.5
20260502045011 10 0 0.0 3.2 0.00 0.00 0.00 75 1011.6
20260502044852 10 0 0.0 3.2 0.00 0.00 0.00 75 1011.6
20260502043453 10 144 0.0 3.2 0.00 0.00 0.00 77 1011.8
20260502043339 10 144 0.0 3.2 0.00 0.00 0.00 77 1011.8
20260502042015 10 144 0.0 3.2 0.00 0.00 0.00 78 1011.9
20260502041823 10 144 0.0 3.2 0.00 0.00 0.00 78 1011.9
20260502040416 9 144 0.0 1.6 0.00 0.00 0.00 79 1011.9
20260502034933 9 0 0.0 1.6 0.00 0.00 0.00 80 1011.7